Weather History for KGGW - December, 2011

Change the Weather History Date:

Monday, December 19, 2011

  Actual Average Record
Temperature  
Mean Temperature 24 °F 15 °F  
Max Temperature 35 °F 25 °F 57 °F (1941)
Min Temperature 12 °F 5 °F -47 °F (1924)
Degree Days  
Heating Degree Days 41 50  
Month to date heating degree days 855 898  
Since 1 July heating degree days 2543 2891  
Cooling Degree Days 0 0  
Month to date cooling degree days 0 0  
Year to date cooling degree days 558 533  
Moisture  
Dew Point 17 °F    
Average Humidity 81    
Maximum Humidity 100    
Minimum Humidity 61    
Precipitation  
Precipitation 0.00 in 0.01 in 0.14 in (1946)
Month to date precipitation 0.13 0.22  
Year to date precipitation 22.74 11.48  
Snow  
Snow 0.00 in 0.30 in 3.00 in (1985)
Month to date snowfall 2.2 4.3  
Since 1 July snowfall 11.0 10.9  
Snow Depth 0.00 in    
Sea Level Pressure  
Sea Level Pressure 30.23 in    
Wind  
Wind Speed 6 mph (South)    
Max Wind Speed 14 mph    
Max Gust Speed -    
Visibility 7 miles    
Events Fog    
T = Trace of Precipitation, MM = Missing Value Source: NWS Daily Summary

Daily Weather History Graph

Daily Weather History Graph

Search for Another Location

Airport or City:

Trip Planner

Search our weather history database for the weather conditions in past years. The results will help you decide how hot, cold, wet, or windy it might be!

Date:

Astronomy

Dec. 19, 2011 Rise Set
Actual Time 7:53 AM MST 4:13 PM MST
Civil Twilight 7:16 AM MST 4:50 PM MST
Nautical Twilight 6:36 AM MST 5:30 PM MST
Astronomical Twilight 5:58 AM MST 6:08 PM MST
Moon 1:49 AM MST (12/19) 12:29 PM MST (12/19)
Length of Visible Light 9h 33m
Length of Day
8h 20m
Waning Crescent, 30% of the Moon is Illuminated
Dec 19
Waning Crescent
Dec 24
New
Dec 31
First Quarter
Jan 9
Full
Jan 16
Last Quarter

Hourly Weather History & Observations

Time (MST) Temp. Windchill Dew Point Humidity Pressure Visibility Wind Dir Wind Speed Gust Speed Precip Events Conditions
12:53 AM 25.0 °F 18.1 °F 21.0 °F 85% 30.30 in 10.0 mi NW 5.8 mph - N/A   Clear
1:53 AM 21.9 °F 13.4 °F 19.0 °F 89% 30.33 in 10.0 mi NW 6.9 mph - N/A   Clear
2:53 AM 19.9 °F 11.1 °F 17.1 °F 89% 30.35 in 10.0 mi NNW 6.9 mph - N/A   Clear
3:53 AM 19.0 °F 11.1 °F 16.0 °F 88% 30.36 in 10.0 mi WNW 5.8 mph - N/A   Partly Cloudy
4:53 AM 19.0 °F 11.1 °F 17.1 °F 92% 30.37 in 10.0 mi WNW 5.8 mph - N/A   Clear
5:53 AM 18.0 °F 12.7 °F 16.0 °F 92% 30.38 in 10.0 mi West 3.5 mph - N/A   Clear
6:53 AM 12.9 °F - 10.0 °F 88% 30.38 in 9.0 mi Calm Calm - N/A   Clear
7:32 AM 12.2 °F - 8.6 °F 85% 30.25 in 1.8 mi Calm Calm - N/A   Clear
7:36 AM 12.2 °F - 8.6 °F 85% 30.25 in 0.8 mi Calm Calm - N/A   Clear
7:53 AM 14.0 °F - 12.0 °F 92% 30.38 in 0.5 mi Calm Calm - N/A Fog Light Freezing Fog
8:10 AM 12.2 °F - 10.4 °F 92% 30.25 in 0.2 mi Calm Calm - N/A Fog Light Freezing Fog
8:21 AM 12.2 °F 4.3 °F 10.4 °F 92% 30.25 in 0.2 mi ESE 4.6 mph - N/A Fog Light Freezing Fog
8:28 AM 12.2 °F 2.9 °F 10.4 °F 92% 30.25 in 0.5 mi ESE 5.8 mph - N/A Fog Light Freezing Fog
8:36 AM 12.2 °F 4.3 °F 10.4 °F 92% 30.26 in 0.2 mi East 4.6 mph - N/A Fog Light Freezing Fog
8:53 AM 15.1 °F 4.2 °F 12.9 °F 91% 30.37 in 0.8 mi SE 8.1 mph - N/A   Mist
8:55 AM 15.8 °F 6.1 °F 12.2 °F 86% 30.25 in 1.5 mi SE 6.9 mph - N/A   Scattered Clouds
8:57 AM 14.0 °F 5.1 °F 12.2 °F 93% 30.25 in 4.0 mi SE 5.8 mph - N/A   Scattered Clouds
9:53 AM 19.9 °F - 19.0 °F 96% 30.37 in 10.0 mi Calm Calm - N/A   Clear
10:53 AM 24.8 °F 16.1 °F 21.2 °F 86% 30.22 in 10.0 mi SSE 8.1 mph - N/A   Clear
11:53 AM 28.0 °F 21.7 °F 23.0 °F 81% 30.31 in 10.0 mi SE 5.8 mph - N/A   Clear
12:53 PM 30.9 °F 22.8 °F 24.1 °F 76% 30.26 in 10.0 mi SSE 9.2 mph - N/A   Clear
1:53 PM 34.0 °F 28.0 °F 24.1 °F 67% 30.22 in 10.0 mi South 6.9 mph - N/A   Clear
2:53 PM 35.1 °F 26.4 °F 24.1 °F 64% 30.15 in 10.0 mi South 12.7 mph - N/A   Clear
3:53 PM 33.1 °F 26.1 °F 21.9 °F 64% 30.15 in 10.0 mi South 8.1 mph - N/A   Clear
4:53 PM 28.9 °F 21.9 °F 19.9 °F 69% 30.13 in 10.0 mi South 6.9 mph - N/A   Clear
5:53 PM 30.0 °F 21.7 °F 19.9 °F 66% 30.11 in 10.0 mi South 9.2 mph - N/A   Clear
6:53 PM 30.0 °F 21.1 °F 19.9 °F 66% 30.09 in 10.0 mi South 10.4 mph - N/A   Clear
7:53 PM 30.0 °F 21.7 °F 19.9 °F 66% 30.07 in 10.0 mi SSW 9.2 mph - N/A   Clear
8:53 PM 28.9 °F 21.1 °F 19.9 °F 69% 30.05 in 10.0 mi South 8.1 mph - N/A   Clear
9:53 PM 27.0 °F 20.5 °F 19.9 °F 75% 30.02 in 10.0 mi SSW 5.8 mph - N/A   Clear
10:53 PM 26.1 °F 19.4 °F 19.0 °F 75% 30.00 in 10.0 mi SSE 5.8 mph - N/A   Clear
11:53 PM 23.0 °F 15.8 °F 18.0 °F 81% 29.96 in 10.0 mi SE 5.8 mph - N/A   Clear